Regional Weather Roundup
Issued by NWS

Home | Current Version | Previous Version | Text Only | Print | Product List | Glossary Off
Versions: 1 2 3 4 5 6 7 8 9 10 11 12 13 14 15 16 17 18 19 20 21 22 23 24 25 26 27

000
ASUS45 KCYS 211110
RWRWY

WYOMING REGIONAL WEATHER ROUNDUP
NATIONAL WEATHER SERVICE CHEYENNE WY
400 AM MST SAT JAN 21 2017

NOTE:  "FAIR" INDICATES FEW OR NO CLOUDS BELOW 12,000 FEET
WITH NO SIGNIFICANT WEATHER AND/OR OBSTRUCTIONS TO VISIBILITY.

WYZ001-211200-
YELLOWSTONE NATIONAL PARK

CITY           SKY/WX    TMP DP  RH WIND       PRES   REMARKS
LK YELLOWSTONE   N/A      6   4  91 CALM      29.32F
W YELLOWSTONE  NOT AVBL

$$
WYZ002>013-054>058-071-098>099-211200-
NORTHERN WYOMING

CITY           SKY/WX    TMP DP  RH WIND       PRES   REMARKS
JACKSON        CLOUDY    16  14  93 N6        29.34S WCI   7
CODY           NOT AVBL
GREYBULL       FOG        8   6  92 CALM      29.38S VSB 1/4
WORLAND        FAIR       4   3  96 CALM      29.35F
SHERIDAN       FAIR      16  11  80 SE7       29.34F WCI   6
BUFFALO        MOCLDY    29  18  63 CALM      29.34F
GILLETTE       FAIR      21  18  88 NE3       29.34F
HULETT         FAIR      28  27  93 MISG      29.35F
NEWCASTLE      CLOUDY    32  30  93 N6        29.37F WCI  26

$$
WYZ014>020-022>026-101>103-211200-
CENTRAL WYOMING

CITY           SKY/WX    TMP DP  RH WIND       PRES   REMARKS
BIG PINEY      CLOUDY     7   5  91 W3        29.34F
PINEDALE       PTSUNNY    5   3  92 W7        29.34F WCI  -7
DUBOIS         NOT AVBL
LANDER         FAIR      16  14  92 CALM      29.33F
RIVERTON       FOG      N/A N/A N/A NW8       29.34F VSB 1/4
CASPER         FAIR      18  14  84 NW6       29.33F WCI  10
DOUGLAS        FAIR      14  10  84 CALM      29.35F

$$
WYZ021-027>030-104>119-211200-
SOUTHERN WYOMING

CITY           SKY/WX    TMP DP  RH WIND       PRES   REMARKS
EVANSTON       CLOUDY    15  10  80 E9        29.27F WCI   3
ROCK SPRINGS   FAIR      15  12  88 NE7       29.30F WCI   5
RAWLINS        CLOUDY    15  11  83 NW3       29.34F
LARAMIE        FAIR       9   4  80 SE8       29.33F WCI  -3
CHEYENNE       FAIR      23  18  81 CALM      29.35F
TORRINGTON     FAIR      17  14  88 E6        29.37F WCI   9

$$




USA.gov is the U.S. government's official web portal to all federal, state and local government web resources and services.